Location: Unspecified
(0.0000°N, 0.0000°E)
Time: 13:01:55
(UTC+02:00)

Ariane H10-3 - Visible Passes

Search period start: 19 October 2017 00:00
Search period end: 29 October 2017 00:00
Orbit: 186 x 19227 km, 7.3° (Epoch: 18 October)

Date Brightness Start Highest point End Pass type
(mag) Time Alt. Az. Time Alt. Az. Time Alt. Az.
19 Oct 7.3 06:28:50 18° W 09:05:43 74° N 09:16:32 10° E visible
19 Oct 7.4 20:59:33 10° WSW 21:13:16 77° S 01:01:33 10° E visible
20 Oct 8.4 03:18:58 10° W 07:21:35 77° N 07:43:50 10° E visible
20 Oct 6.3 19:27:13 10° WSW 19:34:25 65° SSE 20:44:29 12° E visible
21 Oct 9.2 01:31:10 10° W 05:09:11 80° N 06:08:31 10° E visible
21 Oct 8.8 23:51:11 10° W 02:03:10 78° ENE 04:28:57 10° E visible
22 Oct 8.3 22:14:07 10° WSW 22:38:57 85° S 02:40:40 10° E visible
23 Oct 7.5 06:10:23 23° W 08:44:40 76° N 08:56:58 10° E visible
23 Oct 7.1 20:38:07 10° WSW 20:49:55 76° SSE 00:25:24 10° E visible
24 Oct 8.7 02:51:56 10° W 06:53:21 77° N 07:20:16 10° E visible
24 Oct 6.0 19:02:20 10° WSW 19:08:28 62° SSE 20:01:17 10° E visible
25 Oct 9.1 01:02:58 10° W 04:11:44 81° NNW 05:40:32 10° E visible
25 Oct 8.7 23:20:30 10° W 00:07:48 89° NNW 03:55:24 10° E visible
26 Oct 6.7 07:53:21 10° W 09:52:40 78° N 10:00:23 10° E visible
26 Oct 7.9 21:40:27 10° WSW 21:59:20 83° S 01:57:46 10° E visible
27 Oct 7.9 04:11:35 10° W 08:05:54 77° N 08:21:45 10° E visible
27 Oct 6.7 20:01:16 10° WSW 20:10:26 73° SSE 23:03:40 10° E visible
28 Oct 9.1 02:07:59 10° W 06:01:50 78° N 06:40:43 10° E visible
